| time (UTC) | temp F | wind direction | speed knots | gust knots | rain 1hr in | rain 24hr in | rain mn in | humidity % | barometer mb |
| 20260906234503 | 60 | 77 | 0.0 | 3.5 | 0.00 | 0.01 | 0.01 | 87 | 1017.2 |
| 20260906233102 | 60 | 76 | 0.0 | 3.5 | 0.00 | 0.01 | 0.01 | 89 | 1017.3 |
| 20260906231502 | 59 | 46 | 1.7 | 5.2 | 0.00 | 0.01 | 0.01 | 89 | 1017.5 |
| 20260906230104 | 59 | 101 | 0.0 | 3.5 | 0.00 | 0.01 | 0.01 | 90 | 1017.6 |
| 20260906224607 | 59 | 79 | 0.0 | 4.3 | 0.00 | 0.01 | 0.01 | 90 | 1017.5 |
| 20260906223003 | 58 | 148 | 0.9 | 4.3 | 0.00 | 0.01 | 0.01 | 90 | 1017.8 |
| 20260906221602 | 59 | 144 | 1.7 | 4.3 | 0.00 | 0.01 | 0.01 | 89 | 1017.7 |
| 20260906220003 | 59 | 138 | 0.9 | 2.6 | 0.00 | 0.01 | 0.01 | 92 | 1017.8 |
| 20260906214503 | 58 | 150 | 0.9 | 2.6 | 0.00 | 0.01 | 0.01 | 93 | 1017.8 |
| 20260906213106 | 58 | 148 | 0.0 | 3.5 | 0.00 | 0.01 | 0.01 | 91 | 1018.1 |
| 20260906211503 | 58 | 144 | 0.0 | 1.7 | 0.01 | 0.01 | 0.01 | 91 | 1018.2 |
| 20260906210115 | 58 | 144 | 0.0 | 1.7 | 0.01 | 0.01 | 0.01 | 91 | 1018.1 |
| 20260906204606 | 58 | 147 | 0.0 | 1.7 | 0.01 | 0.01 | 0.01 | 90 | 1018.2 |
| 20260906203004 | 58 | 146 | 0.9 | 3.5 | 0.01 | 0.01 | 0.01 | 88 | 1018.6 |
| 20260906201603 | 59 | 102 | 1.7 | 5.2 | 0.00 | 0.00 | 0.00 | 85 | 1018.6 |
| 20260906200002 | 60 | 178 | 1.7 | 5.2 | 0.00 | 0.00 | 0.00 | 82 | 1018.7 |
| 20260906194503 | 60 | 136 | 1.7 | 6.1 | 0.00 | 0.00 | 0.00 | 80 | 1018.7 |
| 20260906193103 | 60 | 169 | 2.6 | 7.0 | 0.00 | 0.00 | 0.00 | 80 | 1018.8 |
| 20260906191505 | 60 | 143 | 1.7 | 5.2 | 0.00 | 0.00 | 0.00 | 80 | 1018.9 |
| 20260906184609 | 60 | 184 | 3.5 | 7.0 | 0.00 | 0.00 | 0.00 | 78 | 1019.1 |
| 20260906183002 | 61 | 132 | 2.6 | 6.1 | 0.00 | 0.00 | 0.00 | 77 | 1019.2 |
| 20260906181604 | 62 | 170 | 2.6 | 6.1 | 0.00 | 0.00 | 0.00 | 75 | 1019.3 |
| 20260906180002 | 63 | 196 | 2.6 | 7.8 | 0.00 | 0.00 | 0.00 | 74 | 1019.4 |
| 20260906174502 | 61 | 150 | 2.6 | 7.0 | 0.00 | 0.00 | 0.00 | 76 | 1019.5 |
| 20260906173107 | 60 | 188 | 3.5 | 7.8 | 0.00 | 0.00 | 0.00 | 78 | 1019.4 |
| 20260906171503 | 60 | 176 | 2.6 | 7.0 | 0.00 | 0.00 | 0.00 | 77 | 1019.4 |
| 20260906164617 | 58 | 164 | 0.9 | 5.2 | 0.00 | 0.00 | 0.00 | 81 | 1019.4 |
| 20260906163002 | 58 | 160 | 0.9 | 6.1 | 0.00 | 0.00 | 0.00 | 81 | 1019.6 |
| 20260906161602 | 59 | 208 | 2.6 | 7.8 | 0.00 | 0.00 | 0.00 | 79 | 1019.9 |
| 20260906160009 | 59 | 157 | 3.5 | 6.1 | 0.00 | 0.00 | 0.00 | 81 | 1019.8 |
| 20260906154504 | 58 | 170 | 3.5 | 6.1 | 0.00 | 0.00 | 0.00 | 83 | 1019.7 |
| 20260906153103 | 58 | 85 | 2.6 | 7.0 | 0.00 | 0.00 | 0.00 | 82 | 1019.8 |
| 20260906151503 | 56 | 84 | 1.7 | 5.2 | 0.00 | 0.00 | 0.00 | 88 | 1019.9 |
| 20260906144629 | 54 | 155 | 0.9 | 5.2 | 0.00 | 0.00 | 0.00 | 91 | 1020.3 |
| 20260906143002 | 54 | 138 | 1.7 | 5.2 | 0.00 | 0.00 | 0.00 | 92 | 1020.3 |
| 20260906141605 | 53 | 160 | 0.9 | 4.3 | 0.00 | 0.00 | 0.00 | 94 | 1020.3 |
| 20260906140007 | 53 | 136 | 1.7 | 5.2 | 0.00 | 0.00 | 0.00 | 95 | 1020.5 |
| 20260906134503 | 53 | 164 | 0.9 | 4.3 | 0.00 | 0.00 | 0.00 | 95 | 1020.5 |
| 20260906133108 | 53 | 121 | 0.9 | 3.5 | 0.00 | 0.00 | 0.00 | 95 | 1020.6 |
| 20260906131506 | 53 | 142 | 0.9 | 2.6 | 0.00 | 0.00 | 0.00 | 95 | 1020.7 |
| 20260906130103 | 53 | 148 | 0.0 | 3.5 | 0.00 | 0.00 | 0.00 | 95 | 1020.9 |
| 20260906124605 | 53 | 138 | 0.9 | 2.6 | 0.00 | 0.00 | 0.00 | 95 | 1020.9 |
| 20260906121602 | 53 | 109 | 0.9 | 4.3 | 0.00 | 0.00 | 0.00 | 94 | 1020.5 |
| 20260906120003 | 53 | 144 | 0.9 | 4.3 | 0.00 | 0.00 | 0.00 | 94 | 1020.5 |
| 20260906114502 | 53 | 99 | 0.0 | 2.6 | 0.00 | 0.00 | 0.00 | 94 | 1020.5 |
| 20260906113102 | 53 | 134 | 0.0 | 3.5 | 0.00 | 0.00 | 0.00 | 94 | 1020.6 |
| 20260906111506 | 53 | 74 | 0.9 | 3.5 | 0.00 | 0.00 | 0.00 | 94 | 1020.9 |
| 20260906110111 | 53 | 95 | 0.9 | 4.3 | 0.00 | 0.00 | 0.00 | 94 | 1021.0 |
| 20260906104604 | 53 | 99 | 1.7 | 4.3 | 0.00 | 0.00 | 0.00 | 93 | 1021.1 |
| 20260906103002 | 53 | 106 | 0.0 | 2.6 | 0.00 | 0.00 | 0.00 | 93 | 1021.3 |
| 20260906101603 | 53 | 114 | 0.0 | 3.5 | 0.00 | 0.00 | 0.00 | 93 | 1021.4 |
| 20260906100003 | 53 | 96 | 0.0 | 1.7 | 0.00 | 0.00 | 0.00 | 93 | 1021.3 |
| 20260906094503 | 53 | 93 | 0.0 | 0.9 | 0.00 | 0.00 | 0.00 | 93 | 1021.4 |
| 20260906093118 | 53 | 93 | 0.0 | 0.9 | 0.00 | 0.00 | 0.00 | 93 | 1021.6 |
| 20260906091505 | 52 | 93 | 0.0 | 0.0 | 0.00 | 0.00 | 0.00 | 93 | 1021.5 |
| 20260906090128 | 52 | 93 | 0.0 | 1.7 | 0.00 | 0.00 | 0.00 | 93 | 1021.6 |
| 20260906084602 | 52 | 92 | 0.0 | 1.7 | 0.00 | 0.00 | 0.00 | 93 | 1022.0 |
| 20260906083003 | 52 | 92 | 0.0 | 0.9 | 0.00 | 0.00 | 0.00 | 93 | 1022.0 |
| 20260906081603 | 52 | 92 | 0.0 | 0.9 | 0.00 | 0.00 | 0.00 | 93 | 1022.1 |
| 20260906080002 | 52 | 93 | 0.0 | 0.9 | 0.00 | 0.00 | 0.00 | 92 | 1022.2 |
| 20260906074503 | 53 | 93 | 0.0 | 0.9 | 0.00 | 0.00 | 0.00 | 92 | 1022.2 |
| 20260906073105 | 53 | 93 | 0.0 | 1.7 | 0.00 | 0.00 | 0.00 | 92 | 1022.5 |
| 20260906071502 | 53 | 93 | 0.0 | 3.5 | 0.00 | 0.00 | 0.00 | 91 | 1022.5 |
| 20260906064607 | 53 | 94 | 0.0 | 1.7 | 0.00 | 0.00 | 0.00 | 90 | 1022.4 |
| 20260906063003 | 53 | 94 | 0.0 | 1.7 | 0.00 | 0.00 | 0.00 | 90 | 1022.5 |
| 20260906061604 | 53 | 94 | 0.0 | 1.7 | 0.00 | 0.00 | 0.00 | 90 | 1022.6 |
| 20260906060006 | 53 | 94 | 0.0 | 0.9 | 0.00 | 0.00 | 0.00 | 90 | 1022.6 |
| 20260906054502 | 53 | 94 | 0.0 | 1.7 | 0.00 | 0.00 | 0.00 | 90 | 1022.5 |
| 20260906053102 | 53 | 86 | 0.9 | 2.6 | 0.00 | 0.00 | 0.00 | 89 | 1022.6 |
| 20260906051502 | 53 | 58 | 0.0 | 1.7 | 0.00 | 0.00 | 0.00 | 90 | 1022.7 |
| 20260906050131 | 53 | 49 | 0.0 | 1.7 | 0.00 | 0.00 | 0.00 | 90 | 1022.6 |
| 20260906044602 | 53 | 50 | 0.0 | 1.7 | 0.00 | 0.00 | 0.00 | 90 | 1022.5 |
| 20260906043003 | 53 | 11 | 0.0 | 1.7 | 0.00 | 0.00 | 0.00 | 90 | 1022.5 |
| 20260906041603 | 53 | 9 | 0.0 | 1.7 | 0.00 | 0.00 | 0.00 | 89 | 1022.4 |
| 20260906040004 | 53 | 360 | 0.0 | 3.5 | 0.00 | 0.00 | 0.00 | 89 | 1022.4 |
| 20260906034503 | 53 | 14 | 0.0 | 0.9 | 0.00 | 0.00 | 0.00 | 89 | 1022.5 |
| 20260906033103 | 53 | 15 | 0.0 | 1.7 | 0.00 | 0.00 | 0.00 | 89 | 1022.4 |
| 20260906031502 | 53 | 32 | 0.0 | 0.9 | 0.00 | 0.00 | 0.00 | 89 | 1022.6 |
| 20260906030134 | 54 | 32 | 0.0 | 1.7 | 0.00 | 0.00 | 0.00 | 88 | 1022.5 |
| 20260906024604 | 54 | 32 | 0.0 | 1.7 | 0.00 | 0.00 | 0.00 | 87 | 1022.4 |
| 20260906023002 | 54 | 94 | 0.0 | 0.9 | 0.00 | 0.00 | 0.00 | 87 | 1022.4 |
| 20260906021613 | 54 | 94 | 0.0 | 0.9 | 0.00 | 0.00 | 0.00 | 86 | 1022.2 |
| 20260906020004 | 54 | 94 | 0.0 | 0.0 | 0.00 | 0.01 | 0.00 | 85 | 1022.2 |
| 20260906014506 | 55 | 94 | 0.0 | 0.9 | 0.00 | 0.01 | 0.00 | 85 | 1022.2 |
| 20260906013103 | 55 | 78 | 0.9 | 3.5 | 0.00 | 0.01 | 0.00 | 85 | 1022.0 |
| 20260906011503 | 55 | 62 | 0.9 | 3.5 | 0.00 | 0.01 | 0.00 | 86 | 1021.9 |
| 20260906004603 | 54 | 336 | 0.0 | 0.0 | 0.00 | 0.01 | 0.00 | 86 | 1022.0 |
| 20260906003004 | 54 | 336 | 0.0 | 0.9 | 0.00 | 0.01 | 0.00 | 86 | 1022.1 |
| 20260906001603 | 54 | 336 | 0.0 | 0.9 | 0.00 | 0.01 | 0.00 | 86 | 1021.9 |
| 20260906000003 | 55 | 336 | 0.0 | 3.5 | 0.00 | 0.01 | 0.00 | 85 | 1022.0 |